FW2111 Weather Reports


Display with metric or nautical units.
time (UTC)temp
F
wind
direction
speed
MPH
gust
MPH
rain 1hr
in
rain 24hr
in
rain mn
in
humidity
%
barometer
mb
20260505192930 41 291 9.0 16.0 0.00 0.00 0.00 37 1010.8
20260505192417 41 305 9.0 17.0 0.00 0.00 0.00 37 1010.9
20260505191919 41 248 8.0 17.0 0.00 0.00 0.00 37 1010.7
20260505191901 41 12 7.0 14.0 0.00 0.00 0.00 37 1010.6
20260505190839 41 275 7.0 19.0 0.00 0.00 0.00 36 1010.7
20260505190315 41 290 7.0 19.0 0.00 0.00 0.00 37 1010.9
20260505185804 41 300 10.0 19.0 0.00 0.00 0.00 37 1010.8
20260505185236 41 321 9.0 19.0 0.00 0.00 0.00 36 1010.9
20260505184734 41 217 8.0 16.0 0.00 0.00 0.00 37 1010.8
20260505184234 41 269 7.0 19.0 0.00 0.00 0.00 37 1010.7
20260505183714 41 338 9.0 19.0 0.00 0.00 0.00 37 1010.6
20260505183148 40 290 10.0 19.0 0.00 0.00 0.00 38 1010.6
20260505182623 40 261 7.0 18.0 0.00 0.00 0.00 37 1010.6
20260505182057 40 267 6.0 17.0 0.00 0.00 0.00 38 1010.5
20260505181544 40 301 8.0 17.0 0.00 0.00 0.00 38 1010.5
20260505181042 40 311 8.0 17.0 0.00 0.00 0.00 38 1010.5
20260505180519 40 249 7.0 17.0 0.00 0.00 0.00 39 1010.6
20260505180457 40 289 7.0 17.0 0.00 0.00 0.00 38 1010.5
20260505175427 40 312 7.0 17.0 0.00 0.00 0.00 37 1010.5
20260505174902 40 311 9.0 19.0 0.00 0.00 0.00 38 1010.5
20260505174338 39 275 9.0 19.0 0.00 0.00 0.00 38 1010.4
20260505173812 40 308 7.0 18.0 0.00 0.00 0.00 38 1010.4
20260505173246 39 321 7.0 18.0 0.00 0.00 0.00 39 1010.3
20260505172739 39 265 7.0 18.0 0.00 0.00 0.00 40 1010.5
20260505172235 39 290 9.0 20.0 0.00 0.00 0.00 40 1010.3
20260505171708 39 244 10.0 20.0 0.00 0.00 0.00 39 1010.2
20260505171143 39 319 10.0 18.0 0.00 0.00 0.00 39 1010.4
20260505170848 39 275 9.0 28.0 0.00 0.00 0.00 39 1010.3
20260505170113 39 256 8.0 28.0 0.00 0.00 0.00 39 1010.3
20260505165818 39 303 7.0 18.0 0.00 0.00 0.00 41 1010.2
20260505165021 39 296 7.0 21.0 0.00 0.00 0.00 41 1010.3
20260505164518 38 259 7.0 21.0 0.00 0.00 0.00 42 1010.2
20260505164005 38 248 7.0 20.0 0.00 0.00 0.00 42 1010.4
20260505163508 37 259 10.0 20.0 0.00 0.00 0.00 43 1010.2
20260505163212 37 296 8.0 17.0 0.00 0.00 0.00 43 1010.3
20260505162438 37 313 8.0 21.0 0.00 0.00 0.00 43 1010.4
20260505161910 37 260 9.0 21.0 0.00 0.00 0.00 44 1010.2
20260505161408 36 272 8.0 18.0 0.00 0.00 0.00 44 1010.2
20260505160840 36 308 6.0 18.0 0.00 0.00 0.00 44 1010.2
20260505160608 36 267 5.0 16.0 0.00 0.00 0.00 43 1010.1
20260505153248 36 260 6.0 17.0 0.00 0.00 0.00 44 1010.0
20260505152742 35 331 7.0 17.0 0.00 0.00 0.00 44 1009.9
20260505152237 35 265 6.0 15.0 0.00 0.00 0.00 44 1009.8
20260505151736 35 248 8.0 13.0 0.00 0.00 0.00 44 1009.7
20260505151225 35 279 8.0 18.0 0.00 0.00 0.00 43 1009.7
20260505150727 35 295 8.0 16.0 0.00 0.00 0.00 43 1009.9
20260505150158 35 130 9.0 15.0 0.00 0.00 0.00 44 1009.7
20260505140450 35 332 8.0 22.0 0.00 0.00 0.00 42 1009.0
20260505130210 35 243 7.0 13.0 0.00 0.00 0.00 44 1008.2
20260505124654 35 342 8.0 12.0 0.00 0.00 0.00 44 1008.1
20260505124127 35 311 8.0 16.0 0.00 0.00 0.00 44 1008.0
20260505123625 35 320 8.0 15.0 0.00 0.00 0.00 45 1008.0
20260505123100 35 287 7.0 15.0 0.00 0.00 0.00 45 1007.9
20260505122532 35 255 6.0 19.0 0.00 0.00 0.00 46 1007.8
20260505122029 35 281 4.0 17.0 0.00 0.00 0.00 45 1007.8
20260505121733 35 294 4.0 12.0 0.00 0.00 0.00 47 1007.7
20260505121000 34 13 6.0 15.0 0.00 0.00 0.00 49 1007.4
20260505120436 34 266 6.0 15.0 0.00 0.00 0.00 48 1007.6
20260505115912 34 289 5.0 13.0 0.00 0.00 0.00 49 1007.4
20260505115411 34 292 4.0 13.0 0.00 0.00 0.00 50 1007.4
20260505115142 35 200 3.0 7.0 0.00 0.00 0.00 51 1007.3
20260505114347 35 276 3.0 8.0 0.00 0.00 0.00 51 1007.2
20260505113849 35 181 3.0 11.0 0.00 0.00 0.00 50 1007.1
20260505113330 34 321 3.0 11.0 0.00 0.00 0.00 50 1007.1
20260505113104 34 261 4.0 15.0 0.00 0.00 0.00 50 1007.0
20260505112314 34 258 5.0 15.0 0.00 0.00 0.00 50 1007.0
20260505111813 34 45 5.0 14.0 0.00 0.00 0.00 50 1006.9
20260505111522 34 217 5.0 15.0 0.00 0.00 0.00 50 1006.8
20260505110747 34 246 6.0 15.0 0.00 0.00 0.00 49 1006.8
20260505110502 34 286 6.0 16.0 0.00 0.00 0.00 49 1006.8
20260505101629 34 247 6.0 18.0 0.00 0.00 0.00 52 1006.4
20260505101106 34 5 6.0 19.0 0.00 0.00 0.00 52 1006.3
20260505100838 34 239 5.0 19.0 0.00 0.00 0.00 52 1006.3
20260505100339 34 256 5.0 15.0 0.00 0.00 0.00 53 1006.4
20260505095544 34 355 4.0 15.0 0.00 0.00 0.00 54 1006.3
20260505095020 34 91 4.0 16.0 0.00 0.00 0.00 55 1006.1
20260505094458 34 91 6.0 18.0 0.00 0.00 0.00 55 1006.2
20260505093951 34 317 6.0 19.0 0.00 0.00 0.00 55 1005.9
20260505093433 35 217 7.0 19.0 0.00 0.00 0.00 56 1005.9
20260505093428 35 290 6.0 19.0 0.00 0.00 0.00 55 1006.0
20260505092419 35 313 8.0 19.0 0.00 0.00 0.00 57 1005.8
20260505091920 35 325 7.0 16.0 0.00 0.00 0.00 58 1005.7
20260505091356 35 288 5.0 18.0 0.00 0.00 0.00 59 1005.6
20260505090828 35 350 4.0 18.0 0.00 0.00 0.00 59 1005.5
20260505090555 35 277 5.0 15.0 0.00 0.00 0.00 59 1005.5
20260505085821 36 317 6.0 15.0 0.00 0.00 0.00 59 1005.3
20260505085318 36 348 6.0 14.0 0.00 0.00 0.00 60 1005.2
20260505084815 36 288 5.0 14.0 0.00 0.00 0.00 61 1005.2
20260505084246 36 236 6.0 14.0 0.00 0.00 0.00 62 1005.2
20260505083722 36 231 6.0 14.0 0.00 0.00 0.00 62 1005.1
20260505083154 36 296 6.0 13.0 0.00 0.00 0.00 62 1005.0
20260505082626 36 260 6.0 12.0 0.00 0.00 0.00 63 1005.1
20260505082122 36 300 6.0 12.0 0.00 0.00 0.00 63 1005.1
20260505081557 36 304 4.0 10.0 0.00 0.00 0.00 63 1005.0
20260505081303 36 271 5.0 12.0 0.00 0.00 0.00 64 1005.0
20260505080504 36 250 4.0 12.0 0.00 0.00 0.00 64 1005.0
20260505080001 36 247 3.0 11.0 0.00 0.00 0.00 65 1005.0
20260505075459 36 249 2.0 9.0 0.00 0.00 0.00 64 1005.0
20260505074931 36 208 2.0 8.0 0.00 0.00 0.00 64 1005.1
20260505074428 36 313 2.0 8.0 0.00 0.00 0.00 64 1005.1
20260505073902 36 250 2.0 7.0 0.00 0.00 0.00 64 1005.1
20260505073359 36 279 4.0 12.0 0.00 0.00 0.00 64 1005.2
20260505072855 37 226 6.0 12.0 0.00 0.00 0.00 63 1005.2
20260505072353 37 282 4.0 11.0 0.00 0.00 0.00 61 1005.3
20260505071851 38 242 2.0 6.0 0.00 0.00 0.00 56 1005.3
20260505071347 37 13 2.0 9.0 0.00 0.00 0.00 57 1005.1
20260505070841 37 264 1.0 9.0 0.00 0.00 0.00 58 1005.1
20260505070338 36 265 0.0 1.0 0.00 0.00 0.00 58 1005.0
20260505065831 36 265 1.0 2.0 0.00 0.00 0.00 58 1005.0
20260505065327 36 265 0.0 2.0 0.00 0.00 0.00 58 1005.1
20260505064823 36 265 0.0 2.0 0.00 0.00 0.00 57 1005.1
20260505064321 36 265 0.0 2.0 0.00 0.00 0.00 57 1004.9
20260505063754 37 265 0.0 2.0 0.00 0.00 0.00 57 1005.0
20260505063229 37 265 0.0 2.0 0.00 0.00 0.00 57 1005.0
20260505062701 37 265 1.0 2.0 0.00 0.00 0.00 56 1004.9
20260505062158 37 265 1.0 2.0 0.00 0.00 0.00 56 1005.0
20260505061630 37 265 1.0 2.0 0.00 0.00 0.00 55 1005.0
20260505061127 38 265 0.0 2.0 0.00 0.00 0.00 54 1005.1
20260505060611 38 265 1.0 3.0 0.00 0.00 0.00 53 1005.1
20260505060111 39 265 1.0 3.0 0.00 0.00 0.00 53 1005.0
20260505055613 39 263 1.0 4.0 0.00 0.00 0.00 53 1005.0
20260505055045 39 280 1.0 4.0 0.00 0.00 0.00 52 1004.9
20260505054543 39 247 0.0 2.0 0.00 0.00 0.00 52 1005.0
20260505054015 40 247 1.0 6.0 0.00 0.00 0.00 51 1005.0
20260505053511 40 247 2.0 6.0 0.00 0.00 0.00 51 1004.9
20260505053009 40 276 2.0 5.0 0.00 0.00 0.00 51 1004.9
20260505052507 40 283 2.0 6.0 0.00 0.00 0.00 50 1004.8
20260505051954 40 17 2.0 9.0 0.00 0.00 0.00 50 1004.8
20260505051457 40 319 2.0 9.0 0.00 0.00 0.00 50 1004.8
20260505051200 40 306 2.0 9.0 0.00 0.00 0.00 50 1004.8
20260505050403 41 293 3.0 9.0 0.00 0.00 0.00 49 1004.8
20260505041136 43 230 5.0 13.0 0.00 0.00 0.00 42 1004.4
20260505040635 43 274 7.0 16.0 0.00 0.00 0.00 42 1004.4
20260505040133 43 266 6.0 16.0 0.00 0.00 0.00 42 1004.4
20260505035634 44 328 2.0 11.0 0.00 0.00 0.00 39 1004.5
20260505035133 44 283 2.0 11.0 0.00 0.00 0.00 37 1004.3
20260505034631 44 192 4.0 11.0 0.00 0.00 0.00 37 1004.3
20260505034103 44 316 3.0 9.0 0.00 0.00 0.00 36 1004.3
20260505033601 44 287 3.0 9.0 0.00 0.00 0.00 36 1004.2
20260505033049 44 265 3.0 9.0 0.00 0.00 0.00 35 1004.2
20260505032550 44 291 4.0 10.0 0.00 0.00 0.00 35 1004.3
20260505032029 44 215 5.0 13.0 0.00 0.00 0.00 35 1004.2
20260505031528 44 310 4.0 13.0 0.00 0.00 0.00 35 1004.1
20260505031028 44 259 3.0 11.0 0.00 0.00 0.00 35 1004.3
20260505030530 44 281 4.0 9.0 0.00 0.00 0.00 35 1004.2
20260505030026 44 196 4.0 12.0 0.00 0.00 0.00 35 1004.1
20260505025523 44 277 3.0 12.0 0.00 0.00 0.00 35 1004.1
20260505024955 44 194 2.0 8.0 0.00 0.00 0.00 35 1004.1
20260505024453 44 217 4.0 11.0 0.00 0.00 0.00 35 1004.0
20260505023926 44 225 3.0 11.0 0.00 0.00 0.00 35 1004.0
20260505023423 44 192 2.0 7.0 0.00 0.00 0.00 35 1003.9
20260505022858 44 269 2.0 7.0 0.00 0.00 0.00 34 1004.0
20260505022353 44 232 2.0 8.0 0.00 0.00 0.00 35 1003.9
20260505021852 44 287 4.0 9.0 0.00 0.00 0.00 34 1003.9
20260505021324 44 250 4.0 12.0 0.00 0.00 0.00 34 1003.7
20260505020822 44 288 3.0 11.0 0.00 0.00 0.00 34 1003.7
20260505020255 44 302 4.0 14.0 0.00 0.00 0.00 33 1003.6
20260505015727 44 331 5.0 14.0 0.00 0.00 0.00 33 1003.5
20260505015227 44 197 5.0 14.0 0.00 0.00 0.00 33 1003.3
20260505014701 45 252 5.0 14.0 0.00 0.00 0.00 33 1003.2
20260505014154 45 246 5.0 14.0 0.00 0.00 0.00 32 1003.0
20260505013651 45 282 4.0 14.0 0.00 0.00 0.00 32 1003.1
20260505013128 45 186 5.0 17.0 0.00 0.00 0.00 32 1003.0
20260505012616 45 216 6.0 17.0 0.00 0.00 0.00 32 1002.9
20260505012115 45 182 5.0 16.0 0.00 0.00 0.00 32 1002.7
20260505011545 45 259 5.0 16.0 0.00 0.00 0.00 32 1002.7
20260505011045 46 67 5.0 16.0 0.00 0.00 0.00 32 1002.6
20260505010524 46 221 7.0 16.0 0.00 0.00 0.00 32 1002.6
20260505010014 46 267 7.0 16.0 0.00 0.00 0.00 31 1002.5
20260505005517 46 196 7.0 16.0 0.00 0.00 0.00 32 1002.5
20260505004953 46 211 5.0 16.0 0.00 0.00 0.00 31 1002.5
20260505004457 46 311 5.0 14.0 0.00 0.00 0.00 31 1002.4
20260505003934 46 298 7.0 16.0 0.00 0.00 0.00 31 1002.3
20260505003706 46 287 8.0 16.0 0.00 0.00 0.00 31 1002.4
20260505002914 46 316 7.0 15.0 0.00 0.00 0.00 31 1002.4
20260505002351 46 259 6.0 19.0 0.00 0.00 0.00 31 1002.3
20260505001852 46 261 7.0 19.0 0.00 0.00 0.00 31 1002.4
20260505001329 46 227 9.0 23.0 0.00 0.00 0.00 31 1002.2
20260505000827 46 330 9.0 23.0 0.00 0.00 0.00 30 1002.2
20260505000327 46 270 7.0 20.0 0.00 0.00 0.00 31 1002.3
20260504235824 46 257 7.0 19.0 0.00 0.00 0.00 31 1002.2
20260504235322 46 236 9.0 21.0 0.00 0.00 0.00 31 1002.2
20260504234819 46 290 11.0 23.0 0.00 0.00 0.00 32 1002.3
20260504234321 46 136 9.0 21.0 0.00 0.00 0.00 32 1002.2
20260504233754 46 229 9.0 25.0 0.00 0.00 0.00 33 1002.2
20260504233231 46 336 10.0 25.0 0.00 0.00 0.00 33 1002.3
20260504232710 45 271 8.0 21.0 0.00 0.00 0.00 34 1002.4
20260504232153 45 254 10.0 24.0 0.00 0.00 0.00 35 1002.4
20260504231655 45 254 9.0 24.0 0.00 0.00 0.00 37 1002.4
20260504231131 46 336 8.0 23.0 0.00 0.00 0.00 39 1002.3
20260504230616 46 246 9.0 23.0 0.00 0.00 0.00 39 1002.1
20260504230051 46 234 11.0 21.0 0.00 0.00 0.00 40 1002.1
20260504225529 46 285 9.0 20.0 0.00 0.00 0.00 40 1002.1
20260504225005 46 238 6.0 15.0 0.00 0.00 0.00 39 1002.1
20260504224504 46 338 6.0 16.0 0.00 0.00 0.00 39 1002.1
20260504224212 46 306 10.0 24.0 0.00 0.00 0.00 39 1002.0
20260504223416 47 291 10.0 24.0 0.00 0.00 0.00 38 1001.9
20260504222915 47 284 7.0 16.0 0.00 0.00 0.00 39 1001.7
20260504222411 47 298 8.0 24.0 0.00 0.00 0.00 39 1001.7
20260504221910 47 300 10.0 21.0 0.00 0.00 0.00 38 1001.6
20260504221404 47 253 10.0 21.0 0.00 0.00 0.00 39 1001.6
20260504220903 47 261 9.0 26.0 0.00 0.00 0.00 39 1001.4
20260504220336 47 202 11.0 26.0 0.00 0.00 0.00 38 1001.5
20260504215808 47 261 10.0 24.0 0.00 0.00 0.00 38 1001.3
20260504215305 48 275 9.0 21.0 0.00 0.00 0.00 37 1001.3
20260504214738 48 263 9.0 20.0 0.00 0.00 0.00 37 1001.2
20260504214212 48 262 7.0 20.0 0.00 0.00 0.00 36 1000.9
20260504213649 49 298 9.0 23.0 0.00 0.00 0.00 37 1000.8
20260504213353 48 315 11.0 24.0 0.00 0.00 0.00 37 1000.7
20260504212827 48 15 10.0 24.0 0.00 0.00 0.00 37 1000.6
20260504212052 49 202 11.0 21.0 0.00 0.00 0.00 37 1000.4
20260504211526 49 263 10.0 20.0 0.00 0.00 0.00 37 1000.4
20260504210959 49 196 9.0 20.0 0.00 0.00 0.00 36 1000.4
20260504210430 49 285 9.0 20.0 0.00 0.00 0.00 36 1000.4
20260504210158 49 303 11.0 25.0 0.00 0.00 0.00 37 1000.4
20260504205421 49 261 12.0 25.0 0.00 0.00 0.00 36 1000.2
20260504204917 49 299 10.0 24.0 0.00 0.00 0.00 35 1000.2
20260504204853 50 298 9.0 19.0 0.00 0.00 0.00 36 1000.2
20260504203823 49 238 11.0 23.0 0.00 0.00 0.00 35 1000.0
20260504203551 49 266 11.0 26.0 0.00 0.00 0.00 36 1000.0
20260504202752 50 237 10.0 26.0 0.00 0.00 0.00 35 1000.0
20260504202250 50 265 11.0 24.0 0.00 0.00 0.00 34 1000.0
20260504202226 50 222 12.0 24.0 0.00 0.00 0.00 34 999.8
20260504201428 50 271 10.0 24.0 0.00 0.00 0.00 34 999.8
20260504200654 50 289 9.0 24.0 0.00 0.00 0.00 34 999.8
20260504200126 49 329 11.0 24.0 0.00 0.00 0.00 34 999.8
20260504195624 49 315 12.0 25.0 0.00 0.00 0.00 35 999.7
20260504195117 49 293 12.0 28.0 0.00 0.00 0.00 34 999.6
20260504194548 50 241 12.0 28.0 0.00 0.00 0.00 35 999.7
20260504194046 50 238 10.0 27.0 0.00 0.00 0.00 35 999.5
20260504193525 50 262 10.0 27.0 0.00 0.00 0.00 34 999.5